Location: Maiden
(35.5760°N, 81.2120°W)
Time: 03:05:13
(UTC-04:00)

Vanguard 2 - Pass Details

Date: 04 August 2020
Orbit: 553 x 2937 km, 32.9° (Epoch: 20 September)

Event Time Altitude Azimuth Distance (km) Brightness Sun altitude
Rises 04:47:09 0° 277° (W) 4,191 - -19.8°
Reaches altitude 10° 04:50:49 10° 269° (W) 2,839 - -19.2°
Exits shadow 04:56:14 32° 213° (SSW) 1,310 8.2 -18.4°
Maximum altitude 04:56:26 32° 208° (SSW) 1,294 8.2 -18.3°
Drops below altitude 10° 05:00:28 10° 144° (SE) 2,007 9.7 -17.7°
Sets 05:02:39 0° 133° (SE) 2,796 10.5 -17.3°
